(127463) = 2002 QC65

Discovered at Palomar on 2002-08-16 by NEAT.

Orbit

Orbit type: Main Belt

Note: WebGL enabled browser required.

epoch2023-09-13.0
epoch JD2460200.5
perihelion date2022-08-25.51145
perihelion JD2459817.01145
argument of perihelion (°)62.46784
ascending node (°)171.95811
inclination (°)11.88895
eccentricity0.1226195
perihelion distance (AU)2.6563004
Tisserand w.r.t. Jupiter3.2
ΔV w.r.t. Earth (km/sec)10.8
semimajor axis (AU)3.0275352
mean anomaly (°)71.75009
mean daily motion (°/day)0.18709840
aphelion distance (AU)3.399
period (years)5.27
P-vector [x]-0.57909348
P-vector [y]-0.80163429
P-vector [z]-0.14843589
Q-vector [x]0.81475156
Q-vector [y]-0.56262161
Q-vector [z]-0.14013147
absolute magnitude15.91
phase slope0.15
uncertainty0
referenceMPO 777660
observations used432
oppositions16
arc length (days)8238
first opposition used2001
last opposition used2023
residual rms (arc-secs)0.58
perturbers coarse indicatorM-v
perturbers precise indicator003Ek
first observation date used2001-03-29.0
last observation date used2023-10-18.0
computer nameMPCLINUX
JD of orbit computation2456937.355765
perihelion JD uncertainty (days)1.1366E-04
argument of perihelion uncertainty (°)2.4707E-05
ascending node uncertainty (°)1.5461E-05
inclination uncertainty (°)5.2977E-06
eccentricity uncertainty 3.4032E-08
perihelion distance uncertainty (AU)1.0142E-07
Minimum Orbit Intersection Distances (in AU)
for orbit epoch: 2460200.5, reference: E2023-VB5
Mercury2.20879
Venus1.94412
Earth1.67119
Mars1.09908
Jupiter1.65732
Saturn5.7743
Uranus15.5214
Neptune26.4893

Observations

439 total observations over interval: 2001 03 29.42783 – 2023 10 18.228022
These data are available for download (format description).

Date (UT) J2000 RA J2000 Dec Magn Location Ref
2001 03 29.42783 14 14 33.06 -03 12 32.6 20.6   608 – Haleakala-AMOS MPS 111852
2001 03 29.43846 14 14 32.76 -03 12 27.6 20.4   608 – Haleakala-AMOS MPS 111852
2001 03 29.44892 14 14 32.45 -03 12 22.0 20.4   608 – Haleakala-AMOS MPS 111852
2001 04 27.44498 13 56 07.45 +00 46 48.8 20.4   608 – Haleakala-AMOS MPS 111852
2001 04 27.45537 13 56 06.99 +00 46 53.6 20.4   608 – Haleakala-AMOS MPS 111852
2001 04 27.46577 13 56 06.54 +00 46 57.5 20.4   608 – Haleakala-AMOS MPS 111852
2001 05 23.20167 13 42 14.29 +02 42 29.6 19.8 R 699 – Lowell Observatory-LONEOS MPS 111852
2001 05 23.23289 13 42 13.62 +02 42 31.9   699 – Lowell Observatory-LONEOS MPS 111852
2001 05 23.28761 13 42 12.51 +02 42 38.9   699 – Lowell Observatory-LONEOS MPS 111852
2001 05 23.31873 13 42 11.83 +02 42 43.5   699 – Lowell Observatory-LONEOS MPS 111852
2002 07 12.40277 21 37 37.47 -02 50 17.0 20.4 R 644 – Palomar Mountain/NEAT MPS 111110
2002 07 12.41688 21 37 37.06 -02 50 19.7 20.4 R 644 – Palomar Mountain/NEAT MPS 111110
2002 07 12.43081 21 37 36.68 -02 50 21.9 20.2 R 644 – Palomar Mountain/NEAT MPS 111110
2002 07 21.36395 21 33 03.39 -03 21 46.7 20.7 R 644 – Palomar Mountain/NEAT MPS 111110
2002 07 21.39060 21 33 02.45 -03 21 54.0 20.5 R 644 – Palomar Mountain/NEAT MPS 111110
2002 07 21.41179 21 33 01.69 -03 21 59.8 20.4 R 644 – Palomar Mountain/NEAT MPS 111110
2002 08 16.35565 21 15 05.72 -05 57 02.7 20.0 R 644 – Palomar Mountain/NEAT MPS 111110
2002 08 16.37670 21 15 04.80 -05 57 11.4 20.1 R 644 – Palomar Mountain/NEAT MPS 111110
2002 08 16.39764 21 15 03.81 -05 57 21.0 20.2 R 644 – Palomar Mountain/NEAT MPS 111110
2002 08 26.26560 21 08 23.78 -07 09 34.7 19.9 R 644 – Palomar Mountain/NEAT MPS 111110
2002 08 26.29814 21 08 22.53 -07 09 49.0 20.0 R 644 – Palomar Mountain/NEAT MPS 111110
2002 08 26.32781 21 08 21.34 -07 10 02.0 20.0 R 644 – Palomar Mountain/NEAT MPS 111110
2003 10 22.27989 02 22 50.22 +02 34 42.1 21.5 V 691 – Steward Observatory, Kitt Peak-Spacewatch MPS 111852
2003 10 22.30791 02 22 48.96 +02 34 31.5 21.6 V 691 – Steward Observatory, Kitt Peak-Spacewatch MPS 111852
2003 10 22.33511 02 22 47.74 +02 34 21.2 21.2 V 691 – Steward Observatory, Kitt Peak-Spacewatch MPS 111852
2006 01 28.48921 12 22 14.01 -03 15 09.1 20.7 V G96 – Mt. Lemmon Survey MPS 161746
2006 01 28.49589 12 22 14.12 -03 15 07.9 20.4 V G96 – Mt. Lemmon Survey MPS 161746
2006 01 28.50252 12 22 14.12 -03 15 07.1 20.6 V G96 – Mt. Lemmon Survey MPS 161746
2006 01 28.50919 12 22 14.19 -03 15 06.3 20.6 V G96 – Mt. Lemmon Survey MPS 161746
2006 02 07.43410 12 22 53.65 -02 43 27.4 21.0 V G96 – Mt. Lemmon Survey MPS 162760
2006 02 07.44073 12 22 53.61 -02 43 25.8 20.4 V G96 – Mt. Lemmon Survey MPS 162760
2006 02 07.44752 12 22 53.58 -02 43 24.0 20.6 V G96 – Mt. Lemmon Survey MPS 162760
2006 02 07.45435 12 22 53.54 -02 43 21.9 20.9 V G96 – Mt. Lemmon Survey MPS 162760
2006 02 20.44210 12 20 27.03 -01 34 14.1   691 – Steward Observatory, Kitt Peak-Spacewatch MPS 163761
2006 02 20.45947 12 20 26.65 -01 34 07.5   691 – Steward Observatory, Kitt Peak-Spacewatch MPS 163761
2006 02 20.47682 12 20 26.28 -01 34 00.5   691 – Steward Observatory, Kitt Peak-Spacewatch MPS 163761
2006 03 02.35551 12 16 14.59 -00 22 10.8 20.2 V 691 – Steward Observatory, Kitt Peak-Spacewatch MPS 165055
2006 03 02.37275 12 16 14.05 -00 22 03.0 20.2 V 691 – Steward Observatory, Kitt Peak-Spacewatch MPS 165055
2006 03 02.38999 12 16 13.47 -00 21 54.5 20.3 V 691 – Steward Observatory, Kitt Peak-Spacewatch MPS 165055
2006 03 03.39928 12 15 41.81 -00 13 47.1   691 – Steward Observatory, Kitt Peak-Spacewatch MPS 165055
2006 03 03.41664 12 15 41.23 -00 13 38.9   691 – Steward Observatory, Kitt Peak-Spacewatch MPS 165055
2006 03 03.43401 12 15 40.65 -00 13 30.4   691 – Steward Observatory, Kitt Peak-Spacewatch MPS 165055
2006 03 26.29043 12 00 56.66 +03 09 02.3 19.4 V G96 – Mt. Lemmon Survey MPS 168162
2006 03 26.29796 12 00 56.34 +03 09 06.5 19.6 V G96 – Mt. Lemmon Survey MPS 168162
2006 03 26.30554 12 00 56.01 +03 09 10.8 19.5 V G96 – Mt. Lemmon Survey MPS 168162
2006 03 26.31294 12 00 55.69 +03 09 14.6 19.5 V G96 – Mt. Lemmon Survey MPS 168162
2006 03 26.32089 12 00 55.33 +03 09 18.9 19.6 V G96 – Mt. Lemmon Survey MPS 168162
2006 03 26.32365 12 00 55.22 +03 09 20.2 19.4 V G96 – Mt. Lemmon Survey MPS 168162
2006 03 26.32641 12 00 55.11 +03 09 21.7 19.4 V G96 – Mt. Lemmon Survey MPS 168162
2006 03 26.32917 12 00 55.00 +03 09 23.3 19.5 V G96 – Mt. Lemmon Survey MPS 168162
2008 09 03.41912 01 28 49.16 +03 51 34.1 20.7 V 691 – Steward Observatory, Kitt Peak-Spacewatch MPS 255664
2008 09 03.43671 01 28 48.81 +03 51 28.2 20.8 V 691 – Steward Observatory, Kitt Peak-Spacewatch MPS 255664
2008 09 03.45428 01 28 48.45 +03 51 22.7 20.5 V 691 – Steward Observatory, Kitt Peak-Spacewatch MPS 255664
2008 10 06.32784 01 10 43.57 +00 06 02.5 20.4 V G96 – Mt. Lemmon Survey MPS 260105
2008 10 06.34017 01 10 43.06 +00 05 57.6 20.3 V G96 – Mt. Lemmon Survey MPS 260105
2008 10 06.35255 01 10 42.52 +00 05 52.1 20.4 V G96 – Mt. Lemmon Survey MPS 260105
2008 10 06.36492 01 10 41.98 +00 05 46.5 20.4 V G96 – Mt. Lemmon Survey MPS 260105
2008 10 07.29874 01 10 02.56 -00 00 53.3 20.1 V G96 – Mt. Lemmon Survey MPS 260105
2008 10 07.30665 01 10 02.20 -00 00 56.6 20.3 V G96 – Mt. Lemmon Survey MPS 260105
2008 10 07.31456 01 10 01.88 -00 01 00.1 20.3 V G96 – Mt. Lemmon Survey MPS 260105
2008 10 07.32252 01 10 01.48 -00 01 03.1 20.3 V G96 – Mt. Lemmon Survey MPS 260105
2011 01 30.41408 10 36 55.473 +01 53 43.76 20.8 w F51 – Pan-STARRS 1, Haleakala MPS 379891
2011 01 30.42885 10 36 55.025 +01 53 48.12 20.9 w F51 – Pan-STARRS 1, Haleakala MPS 379891
2011 01 30.44491 10 36 54.537 +01 53 52.82 20.8 w F51 – Pan-STARRS 1, Haleakala MPS 379891
2011 01 30.45970 10 36 54.086 +01 53 57.22 20.8 w F51 – Pan-STARRS 1, Haleakala MPS 379891
2011 02 05.44831 10 33 41.621 +02 26 17.34 20.7 w F51 – Pan-STARRS 1, Haleakala MPS 379404
2011 02 05.47700 10 33 40.551 +02 26 27.96 21.3 w F51 – Pan-STARRS 1, Haleakala MPS 379404
2011 02 05.49143 10 33 40.031 +02 26 32.49 20.6 w F51 – Pan-STARRS 1, Haleakala MPS 379404
2011 02 23.37560 10 21 29.613 +04 32 52.12 20.0 r F51 – Pan-STARRS 1, Haleakala MPS 388546
2011 02 23.41213 10 21 27.930 +04 33 09.14 20.1 i F51 – Pan-STARRS 1, Haleakala MPS 388546
2011 02 23.42552 10 21 27.310 +04 33 15.85 20.0 i F51 – Pan-STARRS 1, Haleakala MPS 388546
2011 03 06.26219 10 13 35.04 +06 01 26.8 20.0 V G96 – Mt. Lemmon Survey MPS 374450
2011 03 06.27029 10 13 34.71 +06 01 30.8 19.8 V G96 – Mt. Lemmon Survey MPS 374450
2011 03 06.27843 10 13 34.32 +06 01 35.2 20.1 V G96 – Mt. Lemmon Survey MPS 374450
2011 03 06.28652 10 13 33.96 +06 01 39.1 20.6 V G96 – Mt. Lemmon Survey MPS 374450
2012 06 09.41185 17 44 33.273 -04 29 40.06 19.3 r F51 – Pan-STARRS 1, Haleakala MPS 427025
2012 06 09.42105 17 44 32.824 -04 29 39.35 19.3 r F51 – Pan-STARRS 1, Haleakala MPS 427025
2012 06 14.33017 17 40 41.44 -04 25 50.8 18.7 V G96 – Mt. Lemmon Survey MPS 427025
2012 06 14.33707 17 40 41.12 -04 25 50.7 18.8 V G96 – Mt. Lemmon Survey MPS 427025
2012 06 14.34398 17 40 40.80 -04 25 50.6 18.9 V G96 – Mt. Lemmon Survey MPS 427025
2012 06 14.35090 17 40 40.44 -04 25 50.5 18.9 V G96 – Mt. Lemmon Survey MPS 427025
2012 06 15.43875 17 39 48.756 -04 25 32.97 19.8 g F51 – Pan-STARRS 1, Haleakala MPS 427658
2012 06 15.44864 17 39 48.264 -04 25 32.80 19.8 g F51 – Pan-STARRS 1, Haleakala MPS 427658
2012 06 18.30251 17 37 32.66 -04 25 49.1 18.9 V G96 – Mt. Lemmon Survey MPS 427658
2012 06 18.30857 17 37 32.34 -04 25 49.4 18.9 V G96 – Mt. Lemmon Survey MPS 427658
2012 06 18.31464 17 37 32.05 -04 25 49.5 18.9 V G96 – Mt. Lemmon Survey MPS 427658
2012 06 18.32061 17 37 31.76 -04 25 49.6 19.0 V G96 – Mt. Lemmon Survey MPS 427658
2013 09 04.46706 00 02 41.337 -00 34 01.76 20.6 w F51 – Pan-STARRS 1, Haleakala MPS 475667
2013 09 04.48205 00 02 40.760 -00 34 08.40 20.5 w F51 – Pan-STARRS 1, Haleakala MPS 475667
2013 09 06.36887 00 01 30.40 -00 48 07.5 20.2 V G96 – Mt. Lemmon Survey MPS 477163
2013 09 06.37420 00 01 30.19 -00 48 09.9 20.0 V G96 – Mt. Lemmon Survey MPS 477163
2013 09 06.37955 00 01 30.00 -00 48 12.2 19.9 V G96 – Mt. Lemmon Survey MPS 477163
